User: anonymous   Login
Location: Theydon Bois
(51.6750°N, 0.1050°E)
Time: 14:11:17
(UTC+01:00)
Language:

MOS 1-B Rocket - Orbit

View from above orbital plane
View from above orbital plane
View from above satellite
View from above satellite

Ground track
Ground track

The orbit data is extracted from the following two-line orbital elements,

1 20491U 90013D   18172.96490448 -.00000446 +00000-0 -77447-3 0  9990
2 20491 099.0125 175.9888 0468639 161.9182 199.9243 13.03530870348927
Epoch (UTC): 21 June 2018 23:09:27
Eccentricity: 0.0468639
inclination: 99.0125°
perigee height: 891 km
apogee height: 1605 km
right ascension of ascending node: 175.9888°
argument of perigee: 161.9182°
revolutions per day: 13.03530870
mean anomaly at epoch: 199.9243°
orbit number at epoch: 34892

The dashed part of the orbit path shows where the satellite is in the earth's shadow,  

DLR